This demonstration page uses our WeatherBlox Daily Observations layout. Learn more.

Left ArrowRight Arrow

39.29038, -76.61219

Hourly Observations for May 17, 2020

Temp ( °F °C ) Dew Point ( °F °C ) Humidity (%) Winds ( mph kmh ) Pressure ( in mb ) Visibility ( mi km ) Precip ( " mm )
12:54 am 00:54 undefined 64 17.8 52 11.1 65 65 undefined N/A 30.16 1021 N/A N/A
1:54 am 01:54 undefined 63 17.2 52 11.1 68 68 undefined N/A 30.16 1021 N/A N/A
2:54 am 02:54 undefined 62 16.7 52 11.1 70 70 undefined N/A 30.16 1021 N/A N/A
3:54 am 03:54 undefined 62 16.7 53 11.7 73 73 undefined N/A 30.16 1022 N/A N/A
4:54 am 04:54 undefined 61 16.1 53 11.7 75 75 undefined N/A 30.17 1022 N/A N/A
5:54 am 05:54 undefined 61 16.1 52 11.1 72 72 undefined N/A 30.17 1022 N/A N/A
6:54 am 06:54 undefined 60 15.6 53 11.7 78 78 undefined N/A 30.20 1023 N/A N/A
7:54 am 07:54 undefined 61 16.1 55 12.8 81 81 undefined N/A 30.20 1023 N/A N/A
8:54 am 08:54 undefined 62 16.7 56 13.3 80 80 undefined N/A 30.21 1023 N/A N/A
9:54 am 09:54 undefined 63 17.2 56 13.3 78 78 undefined N/A 30.23 1024 N/A N/A
10:54 am 10:54 undefined 63 17.2 55 12.8 76 76 undefined N/A 30.24 1024 N/A N/A
11:54 am 11:54 undefined 64 17.8 56 13.3 75 75 undefined N/A 30.23 1024 N/A N/A
12:54 pm 12:54 undefined 66 18.9 55 12.8 68 68 undefined N/A 30.22 1023 N/A N/A
1:54 pm 13:54 undefined 68 20 53 11.7 59 59 undefined N/A 30.21 1023 N/A N/A
2:54 pm 14:54 undefined 67 19.4 55 12.8 66 66 undefined N/A 30.20 1023 N/A N/A
3:54 pm 15:54 undefined 68 20 53 11.7 59 59 undefined N/A 30.19 1022 N/A N/A
4:54 pm 16:54 undefined 67 19.4 52 11.1 59 59 undefined N/A 30.17 1022 N/A N/A
5:54 pm 17:54 undefined 66 18.9 48 8.9 52 52 undefined N/A 30.16 1021 N/A N/A
6:54 pm 18:54 undefined 67 19.4 49 9.4 53 53 undefined N/A 30.15 1021 N/A N/A
7:54 pm 19:54 undefined 65 18.3 47 8.3 52 52 undefined N/A 30.15 1021 N/A N/A
8:54 pm 20:54 undefined 64 17.8 45 7.2 50 50 undefined N/A 30.15 1021 N/A N/A
9:54 pm 21:54 undefined 63 17.2 45 7.2 52 52 undefined N/A 30.16 1021 N/A N/A
10:54 pm 22:54 undefined 62 16.7 46 7.8 56 56 undefined N/A 30.15 1021 N/A N/A
11:54 pm 23:54 undefined 61 16.1 48 8.9 63 63 undefined N/A 30.14 1021 N/A N/A

Powered by AerisWeather